Wind_Speed
10 11 11 12 12 13 13 14 14 15 16 17 18 19 20 20 21 22 22 22 22 23 23 23 24 24 25 24 24 24 24 24 24 24 24 25 25 26 26 27 27 27 27 27 26 26 27 26 26 25 24 23 22 21 20 19 17 16 16 15 14 14 13 14 14 15 15 16 17
11 12 12 12 12 13 14 15 15 16 17 18 18 20 20 21 22 23 23 24 24 25 25 25 26 26 26 26 25 25 25 24 24 24 24 24 25 25 26 26 27 28 28 28 27 27 28 28 27 26 25 25 23 22 21 20 18 17 17 16 16 15 15 16 16 16 16 17 18
11 12 12 12 13 14 15 16 17 17 18 19 20 20 21 22 23 24 24 25 26 26 27 27 27 27 27 27 27 26 26 25 25 25 25 25 25 25 25 26 27 27 28 28 28 28 28 29 28 27 27 25 24 23 22 21 20 19 19 18 18 17 17 17 16 16 17 18 19
11 11 12 12 13 14 15 16 17 18 19 20 21 22 23 23 24 25 26 27 28 28 28 29 29 29 29 28 28 28 28 28 27 27 27 27 27 26 26 26 27 27 28 28 28 28 29 29 29 28 27 26 25 24 23 22 21 21 20 20 20 19 19 19 18 18 19 19 20
10 11 11 12 13 14 15 16 17 19 20 21 22 24 25 25 26 27 28 29 29 30 30 30 30 30 30 30 30 30 30 30 30 30 30 30 29 28 27 27 27 27 28 28 28 28 28 29 29 28 28 27 26 25 24 23 22 22 21 21 21 21 21 20 19 19 19 20 20
10 11 11 12 13 15 16 17 18 20 21 23 24 26 27 28 29 29 30 30 31 32 32 31 31 30 30 30 31 31 31 31 31 31 31 31 31 30 29 28 27 27 27 28 28 28 28 28 28 28 27 26 26 25 24 23 23 22 22 23 23 23 23 22 21 20 19 20 20
10 11 12 13 15 16 18 19 21 22 24 25 26 28 29 30 31 31 32 32 32 32 32 31 30 30 30 30 31 31 31 31 31 31 31 31 31 30 30 28 27 26 26 27 27 27 27 27 27 27 26 26 26 25 25 24 23 23 24 24 25 25 25 24 23 22 21 21 20
10 12 14 16 17 19 21 22 24 26 27 28 29 30 31 32 32 33 33 33 32 31 31 30 30 29 29 30 30 30 30 30 30 30 30 30 29 29 28 27 26 25 25 25 26 26 26 26 26 26 26 26 26 26 25 25 24 25 25 26 27 27 27 27 26 25 24 23 23
13 15 17 19 21 22 24 26 27 28 29 30 31 32 33 33 33 32 32 32 31 31 30 30 29 29 29 29 29 29 29 29 29 29 29 28 28 27 27 26 25 24 24 24 24 25 26 26 26 26 26 26 26 26 27 26 26 27 27 28 29 29 30 30 29 28 27 26 25
17 19 21 23 24 26 27 29 30 30 31 32 33 34 33 33 32 31 31 31 31 31 30 29 29 29 28 28 28 28 28 28 28 28 28 28 27 26 26 25 24 24 24 24 25 25 26 27 27 27 27 28 28 28 29 28 28 29 29 30 30 31 31 32 31 30 29 28 27
20 22 24 26 27 28 30 31 32 32 33 33 33 33 33 32 31 31 30 30 30 30 29 29 28 28 28 28 28 27 27 27 27 28 28 28 27 27 26 25 25 25 25 25 26 26 27 28 28 29 29 30 30 30 30 31 31 31 32 32 32 32 32 33 33 32 31 30 30
22 24 26 27 29 30 31 32 32 33 33 32 32 32 32 31 31 31 30 30 29 29 29 29 28 28 28 28 28 28 28 28 28 28 28 28 28 27 27 27 26 26 27 27 27 28 28 29 30 30 31 32 32 32 32 33 33 33 33 34 33 33 34 34 34 33 33 32 31
24 26 27 29 30 30 31 32 32 32 31 31 32 32 32 32 31 31 30 30 30 30 30 30 30 29 28 28 28 28 28 28 28 28 28 28 28 28 28 28 28 28 28 29 29 29 29 30 31 32 32 33 33 33 34 34 34 34 34 35 35 35 35 35 35 35 34 33 32
25 27 28 29 30 30 30 30 30 31 31 31 32 32 32 32 32 32 31 31 31 32 32 33 32 31 30 30 29 29 29 29 29 29 29 29 29 29 29 29 29 29 29 30 30 30 30 31 32 33 33 34 34 35 35 34 34 34 35 35 35 36 36 36 36 35 34 34 34
26 27 28 28 29 29 29 29 30 30 31 31 32 33 33 33 34 34 33 33 34 34 34 34 34 34 33 32 31 31 30 30 30 30 30 30 30 30 30 30 30 30 30 30 31 31 32 33 33 34 34 35 35 35 35 35 35 35 35 35 35 36 36 36 36 35 34 34 34
26 27 27 27 28 28 28 29 30 30 31 32 33 34 34 35 36 36 36 36 36 36 36 36 36 36 35 34 33 32 31 31 30 30 30 30 30 30 30 30 30 30 31 31 31 32 32 33 33 34 34 35 35 35 35 35 35 35 35 35 36 36 36 36 36 36 35 35 35
26 26 27 27 27 28 29 29 30 31 32 33 34 35 35 36 37 37 37 37 37 37 37 37 37 37 36 36 35 33 32 31 31 31 30 30 30 30 30 31 31 31 31 31 32 32 33 33 33 33 34 34 34 34 34 34 35 35 35 36 36 36 37 37 37 37 36 36 36
26 26 26 27 27 28 29 30 31 31 33 34 35 36 37 37 38 39 39 39 38 38 38 38 38 38 37 36 35 34 32 31 31 31 31 31 31 31 31 31 31 31 31 32 32 33 34 34 34 33 33 33 33 33 33 34 34 35 35 36 36 37 37 38 38 37 37 37 37
25 26 26 27 28 29 30 30 31 32 33 35 36 37 38 39 39 39 39 39 39 38 37 38 38 38 37 37 36 35 33 32 32 32 31 31 31 31 31 31 31 31 31 32 32 33 33 34 33 33 33 33 33 33 33 33 34 34 35 35 36 36 37 38 38 38 38 38 38
25 26 26 27 28 29 30 31 32 33 35 36 37 38 39 39 39 39 39 39 39 38 37 37 38 38 38 37 36 35 34 33 32 31 31 31 31 31 31 30 31 31 31 31 32 32 33 33 33 33 33 32 32 32 33 33 33 34 34 35 35 36 37 37 38 38 38 38 39
25 26 27 28 29 30 31 32 33 34 36 37 38 38 39 39 39 39 39 39 39 38 38 37 37 37 37 37 36 36 35 33 32 31 31 31 31 31 30 30 31 30 30 30 31 31 31 32 32 32 32 32 32 32 32 32 33 33 34 34 35 36 36 37 38 38 38 38 39
26 26 27 28 29 30 32 33 34 35 36 37 38 38 39 39 39 39 39 39 39 38 38 37 37 37 36 36 36 35 35 34 33 32 32 31 31 31 31 30 31 31 31 31 31 31 31 31 31 32 32 31 32 32 32 32 32 32 33 34 35 35 36 36 37 37 37 38 38
26 27 28 29 30 31 33 34 35 35 36 37 37 38 38 39 39 40 40 39 39 38 37 37 36 36 36 36 35 35 35 35 35 34 33 32 32 32 31 31 31 31 31 31 30 30 29 29 30 30 30 31 31 31 32 31 31 32 32 33 34 34 34 35 35 36 36 37 38
26 27 28 30 31 32 33 34 35 35 36 36 37 37 38 39 39 40 40 39 38 38 37 37 36 36 36 36 36 35 35 34 35 35 35 33 32 31 31 30 30 30 30 29 29 28 28 27 27 28 28 29 29 29 30 30 31 31 31 31 31 32 32 33 33 34 35 36 37
27 28 29 30 32 33 33 34 34 35 35 36 36 37 38 38 39 39 39 39 38 38 37 37 36 36 36 36 35 35 34 33 33 33 33 33 32 31 30 29 28 28 28 28 28 28 28 27 27 26 26 26 26 27 27 28 28 29 30 30 30 30 30 31 31 32 33 35 36
28 29 30 31 32 32 33 33 34 34 35 35 36 36 37 37 38 38 38 38 38 38 37 36 36 36 36 35 35 35 34 33 32 31 31 32 32 31 30 29 28 28 28 28 28 29 29 30 30 29 28 27 27 26 26 26 27 28 29 30 30 30 31 31 31 31 31 32 33
28 29 30 31 32 32 33 33 33 34 34 35 35 36 37 37 37 37 37 37 37 37 36 35 35 35 34 33 33 33 32 32 32 31 30 31 31 32 31 30 28 28 28 29 30 30 31 31 31 32 31 31 29 28 28 27 27 27 27 28 29 29 30 31 31 31 30 30 31
28 29 30 30 31 32 32 33 33 33 34 35 35 36 36 36 36 36 36 36 36 36 35 35 34 33 32 31 31 31 31 31 31 30 30 31 31 31 30 29 28 28 29 29 30 31 32 32 33 33 33 33 32 31 30 29 29 28 27 26 26 27 27 28 29 30 31 31 30
28 29 29 30 31 32 32 33 33 33 34 34 35 35 35 35 35 35 35 35 35 34 34 34 33 32 31 30 30 31 32 31 31 30 30 30 30 30 30 30 29 29 29 30 31 31 32 33 33 34 34 33 32 31 30 29 29 29 29 28 26 25 24 24 25 26 28 29 29
28 28 28 29 30 31 32 32 33 33 34 34 34 34 34 34 34 34 34 34 34 33 33 32 32 31 30 31 31 30 30 30 30 29 28 28 29 29 30 30 29 29 29 30 31 32 33 33 34 34 34 34 34 32 30 28 28 29 29 29 28 27 26 25 24 24 24 25 26
27 27 28 29 30 31 32 32 33 33 33 33 34 34 34 33 33 33 33 33 33 33 33 32 31 30 30 30 30 29 29 29 29 29 28 28 28 29 30 30 30 30 30 31 32 32 33 34 34 35 35 35 34 32 30 29 28 28 29 30 29 29 29 27 26 25 24 23 23
26 27 27 28 30 31 32 32 32 33 33 33 33 33 33 33 33 33 33 33 33 32 32 31 30 30 30 29 29 29 29 29 29 29 29 29 29 30 31 31 31 31 31 32 32 32 33 33 34 34 35 35 33 32 31 30 29 29 29 31 31 31 31 29 29 28 27 26 24
26 26 27 28 29 31 32 32 32 32 32 33 32 32 32 33 33 34 33 32 31 31 30 29 28 28 29 29 28 28 29 29 29 30 30 30 30 30 30 30 30 30 30 31 31 32 32 33 33 34 34 34 33 32 31 31 29 28 28 29 30 31 31 32 31 31 31 30 29
25 26 27 28 30 31 31 32 32 32 32 32 32 32 32 33 33 33 33 32 31 30 29 28 27 27 28 28 28 28 29 30 30 30 30 30 29 29 29 29 29 29 30 31 31 32 33 34 34 35 35 35 34 32 32 31 30 29 29 29 30 30 31 33 33 33 33 33 32
25 26 27 29 30 31 31 31 31 31 31 32 32 33 33 33 33 33 33 32 31 30 29 28 28 28 28 28 28 28 29 30 31 31 31 30 29 29 29 30 31 32 32 33 34 35 35 36 36 36 36 35 33 32 31 30 30 30 30 30 31 31 32 33 34 34 34 34 33
24 25 27 28 30 30 30 30 30 30 31 31 32 33 33 33 33 33 32 31 31 30 30 29 29 29 29 29 29 29 29 30 31 31 31 31 30 29 29 31 32 34 34 34 35 36 37 37 37 37 36 34 32 30 28 28 28 29 30 30 31 32 34 34 34 34 34 34 34
25 25 26 28 29 30 30 30 30 30 30 31 32 32 32 33 33 33 32 30 30 29 30 30 29 29 30 30 30 31 31 31 31 31 32 32 31 30 29 31 33 34 35 36 36 36 37 37 37 37 36 33 30 28 27 25 25 26 27 28 31 33 34 34 34 34 35 35 35
25 25 26 27 28 29 29 29 29 29 30 31 32 32 32 32 32 32 31 30 28 28 29 29 29 30 31 31 32 33 33 33 32 31 31 32 31 30 29 30 32 34 36 37 37 37 37 38 38 38 36 33 30 27 26 24 23 23 24 26 28 31 32 32 32 32 33 35 36
26 26 26 26 27 28 28 29 29 29 30 31 32 32 32 32 31 31 31 30 29 28 28 29 30 32 32 32 32 32 33 33 32 31 31 31 31 31 30 30 32 35 37 38 39 39 39 40 40 40 38 35 31 28 25 23 22 22 23 24 25 27 28 29 30 30 32 35 37
26 26 26 26 26 27 27 28 29 30 30 30 31 32 32 32 31 31 31 30 29 29 29 30 31 33 33 32 31 31 32 33 33 32 31 31 32 32 32 32 33 35 38 40 41 41 41 41 41 41 39 36 32 28 25 22 21 22 23 23 23 24 25 27 29 29 30 33 36
26 26 26 26 26 26 27 28 29 30 31 31 31 31 31 31 31 30 30 30 30 30 29 30 32 33 33 32 31 30 31 32 33 33 33 33 33 33 33 33 33 35 37 39 40 41 41 41 42 42 40 37 33 29 25 22 20 21 22 23 24 23 24 25 26 28 29 30 32
Wind_Direction
337 338 339 340 340 340 340 339 339 339 338 338 336 334 332 330 327 324 322 320 318 316 314 312 310 309 308 308 307 306 305 303 301 300 298 296 295 294 292 290 288 285 279 273 265 259 255 251 249 248 248 248 250 253 255 258 259 261 264 269 270 271 274 277 279 281 283 286 289
337 337 337 337 337 338 338 337 337 336 336 334 332 331 329 327 324 322 320 319 317 315 313 312 310 309 309 308 307 306 305 304 303 301 300 298 296 295 293 291 289 286 282 276 268 260 255 252 249 248 247 248 249 250 253 257 259 261 263 266 267 270 273 274 275 277 280 283 286
336 336 336 337 337 338 338 337 336 334 332 330 328 326 325 323 322 320 318 317 316 315 313 312 311 310 310 309 308 307 306 305 304 303 302 300 298 296 294 291 289 286 283 277 270 262 257 253 251 249 248 249 249 250 252 255 259 262 264 265 267 270 271 272 272 274 277 280 281
337 338 338 338 339 338 337 335 333 331 329 327 325 323 322 321 320 319 317 316 315 314 313 313 312 311 310 309 308 307 306 305 304 303 302 301 299 298 295 292 289 286 282 277 270 262 257 254 252 250 250 250 250 251 253 256 259 262 265 267 269 270 271 272 272 273 274 275 275
339 339 339 338 337 336 334 332 331 329 327 325 323 322 321 320 320 319 318 317 315 315 314 313 312 311 310 309 308 307 305 304 303 302 301 299 299 298 296 293 289 285 280 275 269 262 256 253 251 250 251 251 252 253 255 258 261 263 266 268 271 272 273 273 272 272 271 272 272
340 340 338 338 336 335 333 331 329 328 326 324 324 323 322 321 320 319 318 317 316 315 314 313 312 311 310 309 307 306 305 303 302 300 299 298 297 296 295 293 289 284 279 274 267 260 254 251 250 251 252 252 254 256 258 260 263 265 268 270 271 274 275 274 273 272 270 269 269
341 340 339 338 337 336 334 332 330 328 327 325 325 324 323 322 321 320 319 318 317 316 314 313 312 310 309 308 307 306 304 303 301 299 298 297 295 294 293 291 288 283 278 272 266 259 253 251 251 252 253 255 256 258 260 262 265 267 269 270 272 273 274 274 274 273 272 269 267
340 340 340 339 338 336 335 333 331 329 328 326 325 324 323 322 321 320 319 318 316 315 314 312 311 309 308 307 306 304 303 302 301 299 298 296 295 293 291 289 286 281 275 270 264 259 254 252 252 253 255 256 258 260 262 263 265 267 268 270 272 273 274 275 275 275 274 272 269
341 340 339 339 337 336 335 333 331 329 328 326 325 324 323 323 322 320 319 317 316 315 313 312 310 309 308 306 305 303 302 300 299 298 297 296 294 292 289 286 282 277 271 265 260 257 255 254 254 254 255 257 258 260 263 264 265 266 267 269 271 272 273 274 275 275 274 272 270
341 340 339 338 337 335 333 332 330 328 327 326 325 324 323 323 321 320 318 317 316 315 313 312 311 310 308 306 304 302 300 298 297 296 295 294 292 290 287 284 279 275 269 263 258 255 254 254 254 254 255 257 258 260 262 264 264 265 265 267 268 269 271 272 273 273 272 271 269
339 338 337 336 335 333 331 330 328 327 326 325 324 324 323 322 321 320 319 318 317 315 313 313 312 310 307 305 303 301 299 297 296 295 293 292 290 288 285 281 277 273 268 264 260 256 255 254 253 254 255 256 257 259 260 261 262 262 262 263 265 265 266 268 269 269 268 268 267
337 335 334 333 332 330 329 329 327 326 326 325 324 323 322 322 321 321 320 319 317 315 314 314 313 310 308 305 303 301 300 298 296 294 293 291 289 286 283 280 276 272 268 265 262 259 257 255 254 254 254 255 256 256 257 258 259 259 259 260 261 261 261 262 263 264 265 265 264
333 332 331 330 329 329 329 328 327 326 325 324 323 323 322 322 322 322 321 319 317 316 316 315 314 311 309 306 304 302 301 299 296 294 292 290 288 285 282 279 275 272 269 267 264 261 258 256 255 255 255 255 255 255 255 256 255 255 255 256 257 257 257 258 259 260 261 261 260
330 329 329 329 329 329 328 327 326 325 324 323 323 323 323 323 323 323 322 320 319 318 317 317 315 313 311 308 306 304 301 299 297 294 292 289 287 285 282 279 276 273 270 268 265 262 260 258 257 256 256 256 255 255 254 254 254 253 252 253 254 254 254 255 256 256 256 256 256
328 328 328 328 328 328 327 326 325 325 324 323 323 323 324 323 323 324 323 321 320 319 319 317 316 314 313 310 307 305 302 300 297 295 292 289 287 284 282 279 276 274 271 269 267 265 263 261 260 259 258 257 256 255 255 253 253 252 251 251 251 252 252 253 254 254 254 254 254
327 327 327 327 327 327 326 325 325 325 324 324 324 324 324 323 324 324 323 321 321 320 319 317 315 314 313 311 308 306 303 301 298 295 292 289 287 284 282 280 277 275 273 272 270 268 266 264 262 261 260 259 258 257 256 255 254 253 252 251 251 251 252 253 254 254 254 254 253
326 326 326 326 326 326 325 325 325 325 324 324 324 324 324 324 323 323 322 321 320 319 317 316 314 313 311 310 308 306 303 301 298 295 292 290 287 285 282 280 278 277 275 273 272 270 268 267 265 263 262 261 260 259 258 257 256 255 254 253 252 252 253 253 254 254 254 254 253
324 324 325 325 325 325 325 325 325 325 325 324 324 324 324 323 323 322 322 321 320 318 315 314 313 312 310 308 306 305 303 299 297 294 292 289 287 285 283 281 279 278 276 274 273 271 270 268 267 266 264 263 262 261 260 259 258 257 256 255 254 254 254 254 254 254 254 253 253
322 323 324 325 325 325 325 326 325 325 325 324 324 324 323 323 322 321 320 320 319 317 315 312 311 310 308 306 305 303 301 299 296 294 291 289 287 285 283 282 280 279 277 275 273 272 271 269 268 267 266 265 264 262 261 260 259 258 258 257 256 255 255 255 254 254 253 253 253
322 323 323 324 324 325 325 325 325 325 325 324 324 323 323 322 322 321 319 317 317 316 314 311 309 308 307 305 304 302 300 299 296 293 291 289 288 286 284 282 281 280 277 275 273 272 271 270 269 268 267 266 265 264 263 262 260 259 258 258 257 256 256 255 254 254 253 252 252
321 322 323 324 324 325 325 325 325 324 324 324 323 323 322 322 321 319 317 316 316 314 312 309 307 306 305 304 303 301 300 298 296 293 291 290 288 286 284 283 282 280 278 275 273 271 270 269 269 268 267 266 265 264 263 262 261 260 259 258 258 257 256 255 255 254 253 252 252
321 322 323 324 324 324 324 324 324 324 324 323 323 322 321 320 319 318 317 316 314 312 310 308 306 304 303 302 301 300 299 298 296 293 291 289 287 286 284 283 282 280 277 274 272 271 269 268 267 266 266 266 265 264 263 262 261 261 260 259 258 257 256 255 254 253 253 252 251
321 322 323 324 324 324 324 324 324 323 323 322 322 321 320 319 318 317 317 315 313 311 309 307 305 303 302 301 300 299 298 297 295 293 291 288 287 286 285 283 281 279 277 274 272 270 268 267 266 265 264 264 263 262 262 261 260 260 259 258 258 257 255 254 253 252 251 250 250
321 322 323 323 324 324 324 323 323 323 322 321 321 320 319 318 318 317 316 314 312 310 308 306 304 303 302 301 300 298 297 295 293 292 291 289 287 286 285 283 281 279 276 275 272 270 268 266 266 265 264 263 261 260 259 259 258 258 258 257 256 256 255 254 252 251 250 250 249
321 322 323 323 323 323 323 322 322 321 320 320 320 319 318 317 317 316 314 313 311 309 308 306 304 303 302 301 300 298 297 295 292 291 290 290 288 287 285 284 281 279 277 275 273 271 269 267 266 266 265 264 262 259 257 256 255 255 255 256 255 255 255 254 252 250 249 248 248
321 322 322 322 322 322 321 321 320 320 319 319 319 318 317 317 316 315 313 311 309 308 307 306 304 304 303 301 300 299 297 296 294 291 289 289 289 288 287 284 282 280 277 275 273 271 270 269 267 266 266 266 264 262 260 258 256 254 253 253 253 254 254 254 253 252 250 249 248
321 321 321 321 320 320 319 319 319 319 318 318 318 317 317 316 315 314 312 310 309 308 307 306 305 304 303 301 300 298 297 296 295 293 290 289 288 287 285 283 281 278 276 274 273 272 271 269 268 266 264 264 263 263 263 262 261 259 256 254 252 251 251 251 252 252 251 250 249
319 319 319 319 319 318 318 319 318 318 318 318 317 317 316 316 314 312 310 309 308 308 307 307 306 305 304 302 300 299 297 296 295 294 292 290 287 286 284 282 279 277 276 274 273 272 271 270 269 267 264 263 263 263 263 263 264 263 261 259 256 252 249 248 248 249 249 249 248
317 318 318 318 317 317 317 317 317 317 317 317 317 317 316 315 313 312 311 309 308 308 307 307 307 306 303 301 300 299 298 296 295 293 291 289 287 285 284 283 280 277 276 274 272 272 271 270 269 268 266 265 264 264 263 263 262 262 262 261 260 257 254 249 246 244 243 242 242
316 316 316 316 315 315 316 316 316 317 317 317 317 316 315 313 312 311 310 309 308 307 307 306 306 303 301 299 299 298 297 296 295 293 290 286 284 284 283 283 279 276 275 274 272 271 271 272 271 270 269 268 267 266 265 263 262 260 260 259 258 258 257 256 252 247 242 238 235
315 315 315 315 314 314 315 316 316 317 317 317 316 315 313 312 311 310 309 309 308 307 307 306 303 301 299 299 299 297 295 294 293 291 288 286 283 283 283 282 279 276 275 275 273 272 272 272 272 271 270 269 268 268 266 264 262 260 259 257 256 255 255 255 255 252 248 242 237
314 314 314 314 313 314 315 316 316 317 316 316 315 313 312 310 310 309 309 309 309 308 307 305 302 301 299 299 298 296 294 293 291 289 288 286 284 283 283 282 280 278 277 276 275 274 273 272 271 271 270 270 269 268 266 264 262 260 258 256 255 254 253 252 252 251 250 248 244
314 314 314 313 313 314 315 316 316 316 316 315 314 313 311 310 310 310 310 310 309 307 305 302 300 299 298 298 296 295 294 293 291 289 288 287 285 283 282 281 280 279 278 277 277 276 275 273 272 271 270 270 269 268 266 264 262 259 256 254 253 252 250 249 249 248 248 247 246
313 314 314 313 313 314 315 315 316 316 316 314 313 312 311 311 310 310 310 310 309 307 304 301 299 298 297 296 294 292 292 292 291 289 288 287 285 282 281 280 279 279 279 279 278 278 277 275 274 272 271 271 269 268 266 264 260 257 255 252 251 250 248 247 247 247 246 245 245
313 313 313 313 313 314 315 315 316 316 315 313 312 311 312 311 310 309 309 309 308 306 304 302 300 298 297 296 294 292 291 291 290 290 288 287 284 282 280 280 280 280 280 279 279 279 279 278 276 274 273 271 270 268 266 263 259 256 253 251 250 248 246 246 246 245 245 243 242
313 313 313 313 313 314 314 315 315 315 314 312 311 311 311 311 310 309 309 309 308 306 304 303 302 300 299 298 296 294 293 292 291 290 289 287 284 281 280 280 280 281 282 281 280 280 280 279 277 275 274 272 270 268 265 261 258 255 252 249 247 247 246 245 244 243 243 242 240
313 314 314 313 313 313 314 314 314 313 312 311 311 310 310 309 309 309 310 310 308 306 304 303 301 300 300 299 297 296 295 293 291 289 288 287 285 282 280 280 281 283 283 283 282 281 280 279 278 276 274 272 270 268 264 260 256 253 250 247 247 247 246 245 243 242 241 239 238
313 315 314 313 313 313 313 313 312 311 310 310 310 310 309 309 308 309 309 309 307 305 303 301 300 299 299 298 297 296 295 294 292 289 287 286 285 283 281 280 282 283 284 284 284 283 281 280 279 277 275 273 271 269 266 261 256 252 249 247 248 247 245 243 242 241 240 237 236
315 315 315 314 312 312 312 312 311 310 309 309 309 309 309 309 308 308 308 308 306 303 301 299 299 299 299 298 297 296 295 294 293 291 288 286 285 284 283 282 283 284 285 286 285 284 283 282 280 279 278 276 274 271 267 262 256 252 250 248 247 246 244 242 241 240 239 236 236
316 317 316 314 313 312 311 310 310 310 310 309 308 308 308 308 307 307 307 307 306 304 301 300 299 300 300 299 297 295 294 294 294 293 290 288 287 287 286 283 282 283 284 286 286 284 283 282 281 281 281 279 276 272 268 262 257 253 251 248 247 245 244 242 240 239 238 236 236
318 318 317 315 314 312 311 310 310 311 311 309 307 307 307 307 306 306 306 306 306 304 302 301 300 300 300 299 297 295 294 294 295 294 292 290 289 289 288 285 282 282 283 284 284 284 283 283 282 283 283 281 278 274 270 263 257 254 252 250 248 247 245 243 240 238 236 235 235
Height
784 784 783 783 783 782 782 782 782 782 782 781 781 781 780 780 780 779 779 779 778 778 777 777 776 775 775 774 774 773 772 771 770 770 769 768 767 766 766 765 765 764 763 762 762 761 760 759 758 758 757 757 756 756 756 756 755 755 755 755 755 755 755 755 755 755 756 756 756
783 783 782 782 782 781 781 781 781 781 780 780 780 780 779 779 778 778 777 777 776 776 775 775 774 773 773 772 771 771 770 769 768 767 766 765 765 764 763 762 762 761 761 760 759 759 758 757 756 755 755 755 754 754 753 753 753 753 753 753 753 753 753 753 753 753 754 754 754
782 782 781 781 781 781 780 780 780 780 779 779 779 778 778 777 777 776 776 775 775 774 773 773 772 771 770 770 769 768 768 766 766 765 764 763 762 761 761 760 759 759 758 757 757 756 755 755 754 754 753 752 752 752 751 751 751 751 750 750 750 750 750 750 750 751 751 751 752
782 781 781 781 780 780 780 779 779 779 778 778 777 777 776 776 775 775 774 773 772 772 771 770 770 769 768 767 766 765 765 764 763 762 761 760 760 759 758 757 757 756 755 755 755 754 753 753 752 751 751 750 750 750 749 749 749 749 748 748 748 748 748 748 748 749 749 749 749
781 781 780 780 780 780 779 779 778 778 777 777 776 775 775 774 773 772 772 771 770 769 769 768 767 766 765 765 764 763 762 761 760 760 759 758 757 756 755 755 754 754 753 752 752 751 751 750 750 749 749 749 748 748 748 747 747 746 746 745 746 746 745 745 745 746 746 746 746
780 780 780 780 779 779 778 778 777 776 776 775 774 773 772 772 771 770 769 768 767 766 766 765 764 763 762 761 760 760 759 758 757 757 756 755 754 753 753 752 751 751 750 750 750 749 749 748 748 747 747 747 746 746 746 746 745 745 744 744 743 743 743 743 743 743 743 743 743
780 780 779 779 778 778 777 776 776 775 774 773 772 771 770 769 768 768 767 765 765 764 763 762 762 760 760 759 757 756 756 755 754 753 753 752 751 750 750 749 749 748 748 747 747 747 746 746 746 745 745 745 744 744 744 744 743 742 742 741 741 741 741 740 740 741 741 740 740
779 778 778 777 776 776 775 774 773 772 771 771 770 769 768 767 766 765 764 763 762 761 760 760 759 758 757 756 755 754 753 752 751 750 750 749 748 747 747 746 746 745 745 745 745 745 744 744 744 743 742 742 742 741 741 741 741 740 740 739 738 738 738 738 738 738 738 738 738
777 777 776 775 775 774 773 772 771 770 769 768 768 767 766 765 764 763 762 761 760 759 758 757 756 756 755 754 753 752 750 750 749 747 747 746 745 745 744 743 743 742 742 742 742 742 742 741 741 740 740 740 739 739 739 739 739 738 737 736 736 735 735 735 735 735 735 735 735
775 775 774 773 772 771 770 770 769 768 767 766 765 765 764 763 762 761 760 759 758 757 756 755 754 753 752 751 750 749 749 747 746 745 744 743 742 742 741 740 740 740 739 739 739 739 739 739 738 737 737 737 736 736 736 736 735 735 734 734 733 733 732 732 732 732 732 732 731
773 772 771 771 770 769 769 768 767 766 765 765 763 762 762 761 760 759 758 757 755 755 754 753 752 751 750 749 748 747 746 745 744 743 742 741 740 739 738 738 737 737 736 736 736 736 736 735 735 734 733 733 733 733 732 732 732 731 731 730 730 730 729 729 729 729 729 728 728
771 770 770 769 768 768 767 766 765 764 763 762 761 760 760 759 758 757 755 755 754 752 751 750 750 749 748 746 745 744 743 743 741 740 739 738 737 736 736 735 735 734 734 733 733 733 733 732 731 730 730 729 729 729 729 728 728 728 727 726 726 726 725 725 725 725 725 725 725
770 769 768 768 767 766 765 764 763 762 762 760 760 759 758 756 755 755 753 752 751 750 748 747 747 746 745 744 743 742 741 740 739 738 736 735 735 734 733 732 732 731 731 730 730 730 730 729 728 727 727 726 725 725 725 725 724 724 723 722 722 722 721 721 721 721 721 721 721
768 768 767 766 765 765 764 763 762 761 760 759 758 757 755 754 753 752 751 750 748 747 746 745 744 743 742 741 740 739 738 737 736 735 734 732 732 731 730 729 729 728 728 727 727 727 726 725 725 724 723 722 722 721 721 721 720 720 719 719 718 718 717 717 717 718 718 718 717
767 766 766 765 764 763 762 761 760 759 758 757 755 755 753 752 751 750 749 747 746 745 743 742 740 740 739 738 737 736 735 734 733 731 730 729 728 728 727 726 725 725 725 724 724 723 723 722 721 720 720 719 718 718 717 717 716 716 715 715 714 714 713 713 713 714 714 714 714
766 765 765 764 763 762 761 760 759 758 756 755 754 752 751 750 748 747 746 745 743 742 740 739 738 736 735 735 734 733 732 731 730 729 727 726 725 724 724 723 722 722 721 721 720 720 719 718 718 717 716 715 715 714 714 713 713 712 711 711 710 710 710 710 710 710 710 710 710
765 764 763 762 761 760 760 758 757 756 755 753 752 750 749 748 746 745 744 742 741 739 738 736 735 734 733 731 731 730 729 728 727 726 725 723 722 721 720 720 719 719 718 717 717 716 715 714 714 713 713 712 711 710 710 710 709 709 708 707 707 707 706 706 706 706 706 706 706
763 763 762 761 760 759 758 757 755 754 753 751 750 748 747 746 744 743 741 740 739 737 735 734 732 731 730 729 728 727 727 725 724 723 722 721 720 719 718 716 716 715 715 714 713 712 711 710 710 710 709 708 708 707 707 706 705 705 704 704 703 703 703 702 702 702 702 702 702
762 761 760 760 758 757 756 755 754 752 751 750 748 746 745 744 742 741 739 737 736 735 734 732 730 729 728 726 725 725 724 723 721 720 719 718 717 716 715 714 713 712 712 711 710 709 708 707 706 706 705 705 704 704 703 702 702 701 700 700 700 699 699 699 698 698 698 698 698
760 760 759 758 757 755 754 753 752 750 749 747 746 745 743 741 740 739 737 735 734 733 732 730 728 726 725 724 723 722 721 720 719 718 716 715 714 713 712 711 710 709 708 707 706 705 704 703 703 702 702 701 700 700 699 699 698 697 697 696 696 695 695 694 694 694 694 694 694
759 758 757 756 755 754 752 751 750 749 747 745 744 743 741 740 738 736 735 733 732 731 729 728 726 725 723 721 720 719 718 717 716 715 714 713 711 710 709 709 707 706 705 704 702 701 701 700 700 699 699 698 697 696 696 695 694 694 693 692 692 691 691 690 690 690 690 690 690
758 757 756 755 753 752 751 750 748 747 745 744 742 741 739 737 736 734 733 731 730 728 727 725 724 722 721 720 718 716 715 714 713 712 711 710 708 707 706 705 704 703 701 700 699 698 697 697 696 696 695 695 694 693 692 692 691 690 689 689 688 687 687 686 686 686 686 685 685
756 755 754 753 751 750 749 748 746 745 744 742 740 739 737 735 734 732 730 729 727 726 725 723 721 720 719 717 716 714 713 711 710 709 708 707 705 704 703 702 701 699 698 696 695 695 694 693 692 692 692 691 690 689 689 688 688 687 686 685 684 684 683 682 682 682 682 681 681
755 753 752 751 750 749 747 746 745 743 742 740 739 737 735 733 731 730 728 726 725 723 722 720 719 717 716 715 713 712 710 708 706 705 704 703 702 701 700 699 698 696 695 693 692 691 691 690 689 688 688 687 686 686 685 684 684 683 682 681 680 680 679 679 678 678 678 678 677
753 752 750 749 748 747 745 744 743 742 740 739 737 735 733 731 729 727 725 724 722 721 720 718 716 715 713 712 710 709 707 706 704 702 700 699 699 698 697 696 695 693 692 690 689 689 688 687 686 685 685 684 683 682 681 680 680 679 679 678 677 676 676 675 675 674 674 674 674
751 750 749 748 747 745 744 743 741 740 739 737 735 733 731 729 727 725 724 722 720 718 717 715 714 712 710 709 707 705 704 703 701 700 698 696 695 695 694 693 692 690 689 687 686 686 685 685 684 683 682 681 680 679 678 677 676 676 675 674 674 673 673 672 671 670 670 670 670
750 749 747 746 745 744 742 741 740 738 736 735 733 731 729 727 725 724 722 720 718 716 715 713 711 710 708 706 705 703 701 700 699 697 695 694 693 691 690 690 688 687 685 684 684 683 682 682 681 680 680 679 678 677 675 675 673 673 672 671 670 670 669 668 668 667 667 667 667
748 747 746 745 744 742 741 740 738 736 735 733 731 729 727 725 724 722 720 718 715 714 712 710 709 708 706 704 702 700 699 697 696 695 693 691 690 688 687 686 685 684 682 681 680 680 679 678 678 677 677 676 675 674 673 672 671 670 669 668 667 666 665 665 664 664 664 664 664
747 746 745 744 742 740 739 738 736 735 733 731 729 727 725 724 721 720 718 715 714 712 710 708 707 705 704 702 700 698 696 695 694 692 690 688 687 685 684 683 682 680 679 678 677 676 675 675 674 674 673 673 672 671 670 669 668 667 666 665 665 664 663 662 661 661 661 661 661
746 745 744 742 740 739 738 736 735 733 731 729 727 725 723 721 720 718 716 714 712 710 709 707 705 703 701 700 698 696 694 692 691 689 688 685 684 683 681 680 679 678 676 675 675 674 673 672 671 670 670 670 669 668 667 666 665 664 663 662 662 661 660 660 659 658 657 657 657
745 744 742 741 739 738 736 734 733 731 729 727 725 724 722 720 718 715 714 712 710 708 706 705 703 701 700 698 696 694 692 690 688 687 685 683 682 680 679 677 676 675 674 673 672 670 670 669 668 667 667 666 666 665 664 663 662 661 660 659 658 658 657 657 656 656 655 655 654
744 742 741 740 738 736 734 733 731 729 727 725 724 722 720 718 715 714 712 710 708 706 704 702 701 699 697 695 694 692 690 688 686 685 683 681 680 678 676 675 673 672 670 670 669 667 666 665 665 664 664 663 663 662 661 660 659 658 656 655 655 655 654 654 653 653 652 652 651
742 741 740 738 736 735 733 731 729 727 725 724 722 720 718 715 713 711 710 708 706 705 703 700 699 697 695 693 691 689 687 685 684 682 680 679 677 675 674 672 670 669 667 666 665 664 663 662 661 661 660 660 659 658 657 656 655 654 653 652 651 651 650 650 650 650 649 649 649
741 740 738 737 735 733 731 729 727 725 724 722 720 718 716 714 711 709 707 705 704 703 700 699 697 695 693 691 689 687 685 682 681 679 678 676 675 673 671 669 667 665 664 663 662 661 660 659 658 657 657 656 655 655 654 653 651 650 649 648 647 647 646 646 646 646 645 645 645
740 738 737 735 733 731 730 727 726 724 722 720 717 715 713 712 710 707 705 704 702 700 698 696 695 693 691 689 687 685 682 680 678 676 675 674 672 670 668 665 664 662 661 660 659 657 656 655 654 653 653 652 652 651 650 649 647 646 645 644 643 643 642 642 642 641 641 641 642
739 737 735 734 731 730 728 726 724 722 720 718 715 713 711 709 707 705 703 702 700 698 695 694 692 690 688 686 684 682 680 678 675 673 672 670 669 667 665 662 660 658 657 656 655 654 652 651 650 649 649 648 648 647 645 644 643 641 640 640 639 638 638 638 637 637 637 637 637
737 736 734 732 730 728 726 725 723 720 718 716 714 712 710 707 705 703 701 700 698 695 693 691 690 688 686 683 681 679 677 675 673 671 669 667 666 664 662 659 656 655 653 652 651 650 648 647 646 645 645 644 643 642 641 640 638 637 636 635 634 633 633 633 633 632 632 632 632
736 735 733 731 729 727 725 723 721 719 717 715 712 710 708 705 703 701 699 698 696 694 691 689 687 685 683 681 679 676 674 672 670 669 666 664 663 661 659 656 654 651 649 648 647 645 644 643 641 640 640 640 639 638 637 635 634 632 631 630 629 628 628 628 628 627 626 626 626
734 733 731 730 727 725 723 721 720 718 715 713 710 708 706 704 701 699 698 696 695 692 690 687 685 682 680 678 676 673 670 669 668 666 664 662 660 658 656 654 651 648 646 645 643 641 640 638 637 636 635 635 635 634 632 631 630 628 627 625 625 624 623 623 622 621 620 620 621
732 731 730 728 726 724 722 720 718 716 714 712 709 706 704 702 700 698 696 694 692 690 688 685 683 680 678 676 674 671 668 665 664 663 661 659 657 655 654 651 649 646 643 641 639 637 636 634 633 631 630 630 630 629 628 627 625 624 622 621 620 619 618 617 617 616 615 615 615
731 730 728 726 725 723 721 719 716 714 712 710 708 705 703 700 698 696 694 692 690 689 686 684 680 678 676 674 672 669 666 663 661 660 659 657 655 652 650 648 646 643 640 637 635 634 632 630 628 627 626 625 625 624 623 622 621 619 617 616 615 614 613 612 611 611 610 610 610